User: anonymous   Login
Location: Morgantown
(40.9734°N, 80.6323°W)
Time: 19:48:12
(UTC+00:00)
Language:

AO-73 - Orbit

View from above orbital plane
View from above orbital plane
View from above satellite
View from above satellite

Ground track
Ground track

The orbit data is extracted from the following two-line orbital elements,

1 39444U 13066AE  21262.38908058  .00000319  00000-0  45035-4 0  9998
2 39444  97.5923 244.2745 0056838 201.6328 158.2485 14.82518164421359
Epoch (UTC): 19 September 2021 09:20:16
Eccentricity: 0.0056838
inclination: 97.5923°
perigee height: 581 km
apogee height: 661 km
right ascension of ascending node: 244.2745°
argument of perigee: 201.6328°
revolutions per day: 14.82518164
mean anomaly at epoch: 158.2485°
orbit number at epoch: 42135

The dashed part of the orbit path shows where the satellite is in the earth's shadow,  

DLR